owner,sensor,date,latitude,longitude,vertical_datum,direction_of_sea_water_velocity,sea_water_speed,upward_sea_water_velocity,qcFlag 
TABS,ioos:station:wmo:42050:1,2016-12-01T00:00:00Z,28.8425,-94.2433,2.0,315.1043004,3.896164781,-99999.0,'11133222,11111222,99999999' 
TABS,ioos:station:wmo:42050:1,2016-12-01T00:30:00Z,28.8425,-94.2433,2.0,189.950393,1.157410904,-99999.0,'11133222,11111222,99999999' 
TABS,ioos:station:wmo:42050:1,2016-12-01T01:00:00Z,28.8425,-94.2433,2.0,297.7746372,1.695317079,-99999.0,'11133222,11111222,99999999' 
TABS,ioos:station:wmo:42050:1,2016-12-01T01:30:00Z,28.8425,-94.2433,2.0,245.2379052,2.984392736,-99999.0,'11133222,11111222,99999999' 
TABS,ioos:station:wmo:42050:1,2016-12-01T02:00:00Z,28.8425,-94.2433,2.0,243.9538717,2.960675599,-99999.0,'11133222,11111222,99999999' 
TABS,ioos:station:wmo:42050:1,2016-12-01T02:30:00Z,28.8425,-94.2433,2.0,194.2808519,1.702615635,-99999.0,'11133222,11111222,99999999' 
TABS,ioos:station:wmo:42050:1,2016-12-01T03:00:00Z,28.8425,-94.2433,2.0,277.7423941,3.340449072,-99999.0,'11133222,11111222,99999999' 
TABS,ioos:station:wmo:42050:1,2016-12-01T03:30:00Z,28.8425,-94.2433,2.0,309.8249975,3.841106611,-99999.0,'11133222,11111222,99999999' 
TABS,ioos:station:wmo:42050:1,2016-12-01T04:00:00Z,28.8425,-94.2433,2.0,312.5985948,3.206009981,-99999.0,'11133222,11111222,99999999' 
TABS,ioos:station:wmo:42050:1,2016-12-01T04:30:00Z,28.8425,-94.2433,2.0,280.6007241,3.642155955,-99999.0,'11133222,11111222,99999999' 
TABS,ioos:station:wmo:42050:1,2016-12-01T05:00:00Z,28.8425,-94.2433,2.0,308.5686853,1.956859729,-99999.0,'11133222,11111222,99999999' 
TABS,ioos:station:wmo:42050:1,2016-12-01T05:30:00Z,28.8425,-94.2433,2.0,353.0938195,3.575947427,-99999.0,'11133222,11111222,99999999' 
TABS,ioos:station:wmo:42050:1,2016-12-01T06:00:00Z,28.8425,-94.2433,2.0,345.4532052,3.264659247,-99999.0,'11133222,11111222,99999999' 
TABS,ioos:station:wmo:42050:1,2016-12-01T06:30:00Z,28.8425,-94.2433,2.0,351.7378048,3.061780528,-99999.0,'11133222,11111222,99999999' 
TABS,ioos:station:wmo:42050:1,2016-12-01T07:00:00Z,28.8425,-94.2433,2.0,20.54593036,6.525044061,-99999.0,'11133222,11111222,99999999' 
TABS,ioos:station:wmo:42050:1,2016-12-01T07:30:00Z,28.8425,-94.2433,2.0,321.5776857,3.395246677,-99999.0,'11133222,11111222,99999999' 
TABS,ioos:station:wmo:42050:1,2016-12-01T08:00:00Z,28.8425,-94.2433,2.0,338.9627486,5.710639194,-99999.0,'11133222,11111222,99999999' 
TABS,ioos:station:wmo:42050:1,2016-12-01T08:30:00Z,28.8425,-94.2433,2.0,346.9286914,4.465713829,-99999.0,'11133222,11111222,99999999' 
TABS,ioos:station:wmo:42050:1,2016-12-01T09:00:00Z,28.8425,-94.2433,2.0,292.6100868,4.343846222,-99999.0,'11133222,11111222,99999999' 
TABS,ioos:station:wmo:42050:1,2016-12-01T09:30:00Z,28.8425,-94.2433,2.0,245.9204149,2.990200662,-99999.0,'11133222,11111222,99999999' 
TABS,ioos:station:wmo:42050:1,2016-12-01T10:00:00Z,28.8425,-94.2433,2.0,259.4730159,4.160012019,-99999.0,'11133222,11111222,99999999' 
TABS,ioos:station:wmo:42050:1,2016-12-01T10:30:00Z,28.8425,-94.2433,2.0,260.0096157,5.533904589,-99999.0,'11133222,11111222,99999999' 
TABS,ioos:station:wmo:42050:1,2016-12-01T11:00:00Z,28.8425,-94.2433,2.0,263.850759,7.935653722,-99999.0,'11133222,11111222,99999999' 
TABS,ioos:station:wmo:42050:1,2016-12-01T11:30:00Z,28.8425,-94.2433,2.0,234.3844111,8.586058467,-99999.0,'11133222,11111222,99999999' 
TABS,ioos:station:wmo:42050:1,2016-12-01T12:00:00Z,28.8425,-94.2433,2.0,213.5183889,9.271855262,-99999.0,'11133222,11111222,99999999' 
TABS,ioos:station:wmo:42050:1,2016-12-01T12:30:00Z,28.8425,-94.2433,2.0,213.1146501,11.60491275,-99999.0,'11111222,11111222,99999999' 
TABS,ioos:station:wmo:42050:1,2016-12-01T13:00:00Z,28.8425,-94.2433,2.0,220.6532305,14.27511471,-99999.0,'11111222,11111222,99999999' 
TABS,ioos:station:wmo:42050:1,2016-12-01T13:30:00Z,28.8425,-94.2433,2.0,224.6515044,10.4724448,-99999.0,'11111222,11111222,99999999' 
TABS,ioos:station:wmo:42050:1,2016-12-01T14:00:00Z,28.8425,-94.2433,2.0,227.6204344,13.14472137,-99999.0,'11111222,11111222,99999999' 
TABS,ioos:station:wmo:42050:1,2016-12-01T14:30:00Z,28.8425,-94.2433,2.0,244.5873012,14.00509193,-99999.0,'11111222,11111222,99999999' 
TABS,ioos:station:wmo:42050:1,2016-12-01T15:00:00Z,28.8425,-94.2433,2.0,242.5440559,12.94839758,-99999.0,'11111222,11111222,99999999' 
TABS,ioos:station:wmo:42050:1,2016-12-01T15:30:00Z,28.8425,-94.2433,2.0,271.4959327,12.64430702,-99999.0,'11111222,11111222,99999999' 
TABS,ioos:station:wmo:42050:1,2016-12-01T16:00:00Z,28.8425,-94.2433,2.0,266.353519,13.83800925,-99999.0,'11111222,11111222,99999999' 
TABS,ioos:station:wmo:42050:1,2016-12-01T16:30:00Z,28.8425,-94.2433,2.0,265.9868448,14.00433147,-99999.0,'11111222,11111222,99999999' 
TABS,ioos:station:wmo:42050:1,2016-12-01T17:00:00Z,28.8425,-94.2433,2.0,285.0443263,12.13593425,-99999.0,'11111222,11111222,99999999' 
TABS,ioos:station:wmo:42050:1,2016-12-01T17:30:00Z,28.8425,-94.2433,2.0,297.6172536,14.12985846,-99999.0,'11111222,11111222,99999999' 
TABS,ioos:station:wmo:42050:1,2016-12-01T18:00:00Z,28.8425,-94.2433,2.0,295.4426815,17.57439615,-99999.0,'11111222,11111222,99999999' 
TABS,ioos:station:wmo:42050:1,2016-12-01T18:30:00Z,28.8425,-94.2433,2.0,306.8854321,15.07800053,-99999.0,'11111222,11111222,99999999' 
TABS,ioos:station:wmo:42050:1,2016-12-01T19:00:00Z,28.8425,-94.2433,2.0,309.7180043,12.51946085,-99999.0,'11111222,11111222,99999999' 
TABS,ioos:station:wmo:42050:1,2016-12-01T19:30:00Z,28.8425,-94.2433,2.0,320.68032,14.50325825,-99999.0,'11111222,11111222,99999999' 
TABS,ioos:station:wmo:42050:1,2016-12-01T20:00:00Z,28.8425,-94.2433,2.0,317.1214071,13.18243149,-99999.0,'11111222,11111222,99999999' 
TABS,ioos:station:wmo:42050:1,2016-12-01T20:30:00Z,28.8425,-94.2433,2.0,302.031918,11.59531802,-99999.0,'11111222,11111222,99999999' 
TABS,ioos:station:wmo:42050:1,2016-12-01T21:00:00Z,28.8425,-94.2433,2.0,309.9200222,12.85620862,-99999.0,'11111222,11111222,99999999' 
TABS,ioos:station:wmo:42050:1,2016-12-01T21:30:00Z,28.8425,-94.2433,2.0,294.464774,9.272496967,-99999.0,'11133222,11111222,99999999' 
TABS,ioos:station:wmo:42050:1,2016-12-01T22:00:00Z,28.8425,-94.2433,2.0,312.4687369,10.88592669,-99999.0,'11111222,11111222,99999999' 
TABS,ioos:station:wmo:42050:1,2016-12-01T22:30:00Z,28.8425,-94.2433,2.0,292.3252996,10.16167309,-99999.0,'11111222,11111222,99999999' 
TABS,ioos:station:wmo:42050:1,2016-12-01T23:00:00Z,28.8425,-94.2433,2.0,282.2548324,11.77837425,-99999.0,'11111222,11111222,99999999' 
TABS,ioos:station:wmo:42050:1,2016-12-01T23:30:00Z,28.8425,-94.2433,2.0,268.3662226,10.17413387,-99999.0,'11111222,11111222,99999999' 
TABS,ioos:station:wmo:42050:1,2016-12-02T00:00:00Z,28.8425,-94.2433,2.0,260.4126105,9.066625613,-99999.0,'11133222,11111222,99999999' 
TABS,ioos:station:wmo:42050:1,2016-12-02T00:30:00Z,28.8425,-94.2433,2.0,264.62806,9.079873347,-99999.0,'11133222,11111222,99999999' 
TABS,ioos:station:wmo:42050:1,2016-12-02T01:00:00Z,28.8425,-94.2433,2.0,243.409383,10.16516601,-99999.0,'11111222,11111222,99999999' 
TABS,ioos:station:wmo:42050:1,2016-12-02T01:30:00Z,28.8425,-94.2433,2.0,264.097706,9.238971804,-99999.0,'11133222,11111222,99999999' 
TABS,ioos:station:wmo:42050:1,2016-12-02T02:00:00Z,28.8425,-94.2433,2.0,239.7205273,10.90808874,-99999.0,'11111222,11111222,99999999' 
TABS,ioos:station:wmo:42050:1,2016-12-02T02:30:00Z,28.8425,-94.2433,2.0,250.4083326,9.245220387,-99999.0,'11133222,11111222,99999999' 
TABS,ioos:station:wmo:42050:1,2016-12-02T03:00:00Z,28.8425,-94.2433,2.0,261.6840736,10.92485698,-99999.0,'11111222,11111222,99999999' 
TABS,ioos:station:wmo:42050:1,2016-12-02T03:30:00Z,28.8425,-94.2433,2.0,263.0126059,9.782647903,-99999.0,'11133222,11111222,99999999' 
TABS,ioos:station:wmo:42050:1,2016-12-02T04:00:00Z,28.8425,-94.2433,2.0,262.7608695,9.999699995,-99999.0,'11133222,11111222,99999999' 
TABS,ioos:station:wmo:42050:1,2016-12-02T04:30:00Z,28.8425,-94.2433,2.0,293.2651758,9.089037353,-99999.0,'11133222,11111222,99999999' 
TABS,ioos:station:wmo:42050:1,2016-12-02T05:00:00Z,28.8425,-94.2433,2.0,279.2449921,8.652381175,-99999.0,'11133222,11111222,99999999' 
TABS,ioos:station:wmo:42050:1,2016-12-02T05:30:00Z,28.8425,-94.2433,2.0,279.3900372,9.071543419,-99999.0,'11133222,11111222,99999999' 
TABS,ioos:station:wmo:42050:1,2016-12-02T06:00:00Z,28.8425,-94.2433,2.0,290.679153,9.288406753,-99999.0,'11133222,11111222,99999999' 
TABS,ioos:station:wmo:42050:1,2016-12-02T06:30:00Z,28.8425,-94.2433,2.0,285.5827482,11.05637373,-99999.0,'11111222,11111222,99999999' 
TABS,ioos:station:wmo:42050:1,2016-12-02T07:00:00Z,28.8425,-94.2433,2.0,253.2744834,8.478679142,-99999.0,'11133222,11111222,99999999' 
TABS,ioos:station:wmo:42050:1,2016-12-02T07:30:00Z,28.8425,-94.2433,2.0,288.0987373,9.689385945,-99999.0,'11133222,11111222,99999999' 
TABS,ioos:station:wmo:42050:1,2016-12-02T08:00:00Z,28.8425,-94.2433,2.0,273.6076103,8.106059462,-99999.0,'11133222,11111222,99999999' 
TABS,ioos:station:wmo:42050:1,2016-12-02T08:30:00Z,28.8425,-94.2433,2.0,265.1854597,10.36657128,-99999.0,'11111222,11111222,99999999' 
TABS,ioos:station:wmo:42050:1,2016-12-02T09:00:00Z,28.8425,-94.2433,2.0,244.3723814,9.01703388,-99999.0,'11133222,11111222,99999999' 
TABS,ioos:station:wmo:42050:1,2016-12-02T09:30:00Z,28.8425,-94.2433,2.0,264.1229875,10.64594759,-99999.0,'11111222,11111222,99999999' 
TABS,ioos:station:wmo:42050:1,2016-12-02T10:00:00Z,28.8425,-94.2433,2.0,251.2268344,14.48032113,-99999.0,'11111222,11111222,99999999' 
TABS,ioos:station:wmo:42050:1,2016-12-02T10:30:00Z,28.8425,-94.2433,2.0,240.4509482,13.40327199,-99999.0,'11111222,11111222,99999999' 
TABS,ioos:station:wmo:42050:1,2016-12-02T11:00:00Z,28.8425,-94.2433,2.0,236.4469677,17.35107201,-99999.0,'11111222,11111222,99999999' 
TABS,ioos:station:wmo:42050:1,2016-12-02T11:30:00Z,28.8425,-94.2433,2.0,238.7859701,15.72656987,-99999.0,'11111222,11111222,99999999' 
TABS,ioos:station:wmo:42050:1,2016-12-02T12:00:00Z,28.8425,-94.2433,2.0,239.9069397,18.38848825,-99999.0,'11111222,11111222,99999999' 
TABS,ioos:station:wmo:42050:1,2016-12-02T12:30:00Z,28.8425,-94.2433,2.0,237.5594475,18.43707406,-99999.0,'11111222,11111222,99999999' 
TABS,ioos:station:wmo:42050:1,2016-12-02T13:00:00Z,28.8425,-94.2433,2.0,250.680618,16.80634404,-99999.0,'11111222,11111222,99999999' 
TABS,ioos:station:wmo:42050:1,2016-12-02T13:30:00Z,28.8425,-94.2433,2.0,242.4489826,20.53908713,-99999.0,'11111222,11111222,99999999' 
TABS,ioos:station:wmo:42050:1,2016-12-02T14:00:00Z,28.8425,-94.2433,2.0,244.0711821,18.11326862,-99999.0,'11111222,11111222,99999999' 
TABS,ioos:station:wmo:42050:1,2016-12-02T14:30:00Z,28.8425,-94.2433,2.0,243.1166766,21.76174855,-99999.0,'11111222,11111222,99999999' 
TABS,ioos:station:wmo:42050:1,2016-12-02T15:00:00Z,28.8425,-94.2433,2.0,247.9894844,19.87881787,-99999.0,'11111222,11111222,99999999' 
TABS,ioos:station:wmo:42050:1,2016-12-02T15:30:00Z,28.8425,-94.2433,2.0,256.3223244,15.09813896,-99999.0,'11111222,11111222,99999999' 
TABS,ioos:station:wmo:42050:1,2016-12-02T16:00:00Z,28.8425,-94.2433,2.0,272.7923528,18.27168848,-99999.0,'11111222,11111222,99999999' 
TABS,ioos:station:wmo:42050:1,2016-12-02T16:30:00Z,28.8425,-94.2433,2.0,276.6680459,15.07194082,-99999.0,'11111222,11111222,99999999' 
TABS,ioos:station:wmo:42050:1,2016-12-02T17:00:00Z,28.8425,-94.2433,2.0,276.3405978,18.47298568,-99999.0,'11111222,11111222,99999999' 
TABS,ioos:station:wmo:42050:1,2016-12-02T17:30:00Z,28.8425,-94.2433,2.0,274.9667755,22.06283073,-99999.0,'11111222,11111222,99999999' 
TABS,ioos:station:wmo:42050:1,2016-12-02T18:00:00Z,28.8425,-94.2433,2.0,295.4831273,17.75754769,-99999.0,'11111222,11111222,99999999' 
TABS,ioos:station:wmo:42050:1,2016-12-02T18:30:00Z,28.8425,-94.2433,2.0,282.2418433,24.00582638,-99999.0,'11111222,11111222,99999999' 
TABS,ioos:station:wmo:42050:1,2016-12-02T19:00:00Z,28.8425,-94.2433,2.0,283.7350466,23.03877818,-99999.0,'11111222,11111222,99999999' 
TABS,ioos:station:wmo:42050:1,2016-12-02T19:30:00Z,28.8425,-94.2433,2.0,281.0700531,22.44765021,-99999.0,'11111222,11111222,99999999' 
TABS,ioos:station:wmo:42050:1,2016-12-02T20:00:00Z,28.8425,-94.2433,2.0,279.3724917,28.18624132,-99999.0,'11111222,11111222,99999999' 
TABS,ioos:station:wmo:42050:1,2016-12-02T20:30:00Z,28.8425,-94.2433,2.0,278.8339544,27.41518193,-99999.0,'11111222,11111222,99999999' 
TABS,ioos:station:wmo:42050:1,2016-12-02T21:00:00Z,28.8425,-94.2433,2.0,279.130576,26.09055768,-99999.0,'11111222,11111222,99999999' 
TABS,ioos:station:wmo:42050:1,2016-12-02T21:30:00Z,28.8425,-94.2433,2.0,281.4353758,24.26158486,-99999.0,'11111222,11111222,99999999' 
TABS,ioos:station:wmo:42050:1,2016-12-02T22:00:00Z,28.8425,-94.2433,2.0,275.44427,23.08411792,-99999.0,'11111222,11111222,99999999' 
TABS,ioos:station:wmo:42050:1,2016-12-02T22:30:00Z,28.8425,-94.2433,2.0,270.7279456,31.50253958,-99999.0,'11111222,11111222,99999999' 
TABS,ioos:station:wmo:42050:1,2016-12-02T23:00:00Z,28.8425,-94.2433,2.0,264.4119305,29.68103266,-99999.0,'11111222,11111222,99999999' 
TABS,ioos:station:wmo:42050:1,2016-12-02T23:30:00Z,28.8425,-94.2433,2.0,268.303357,36.48598772,-99999.0,'11111222,11111222,99999999' 
TABS,ioos:station:wmo:42050:1,2016-12-03T00:00:00Z,28.8425,-94.2433,2.0,262.8745794,32.81338904,-99999.0,'11111222,11111222,99999999' 
TABS,ioos:station:wmo:42050:1,2016-12-03T00:30:00Z,28.8425,-94.2433,2.0,267.8067348,31.62315765,-99999.0,'11111222,11111222,99999999' 
TABS,ioos:station:wmo:42050:1,2016-12-03T01:00:00Z,28.8425,-94.2433,2.0,264.7468671,36.48320847,-99999.0,'11111222,11111222,99999999' 
TABS,ioos:station:wmo:42050:1,2016-12-03T01:30:00Z,28.8425,-94.2433,2.0,272.9344549,35.94712228,-99999.0,'11111222,11111222,99999999' 
TABS,ioos:station:wmo:42050:1,2016-12-03T02:00:00Z,28.8425,-94.2433,2.0,265.9878887,36.44930864,-99999.0,'11111222,11111222,99999999' 
TABS,ioos:station:wmo:42050:1,2016-12-03T02:30:00Z,28.8425,-94.2433,2.0,274.1079081,41.04542849,-99999.0,'11111222,11111222,99999999' 
TABS,ioos:station:wmo:42050:1,2016-12-03T03:00:00Z,28.8425,-94.2433,2.0,264.6387575,42.70679688,-99999.0,'11111222,11111222,99999999' 
TABS,ioos:station:wmo:42050:1,2016-12-03T03:30:00Z,28.8425,-94.2433,2.0,273.8064236,37.8133971,-99999.0,'11111222,11111222,99999999' 
TABS,ioos:station:wmo:42050:1,2016-12-03T04:00:00Z,28.8425,-94.2433,2.0,270.2714889,40.16044945,-99999.0,'11111222,11111222,99999999' 
TABS,ioos:station:wmo:42050:1,2016-12-03T04:30:00Z,28.8425,-94.2433,2.0,261.7199505,41.17921077,-99999.0,'11111222,11111222,99999999' 
TABS,ioos:station:wmo:42050:1,2016-12-03T05:00:00Z,28.8425,-94.2433,2.0,271.9947194,42.81593395,-99999.0,'11111222,11111222,99999999' 
TABS,ioos:station:wmo:42050:1,2016-12-03T05:30:00Z,28.8425,-94.2433,2.0,269.5288922,48.69164302,-99999.0,'11111222,11111222,99999999' 
TABS,ioos:station:wmo:42050:1,2016-12-03T06:00:00Z,28.8425,-94.2433,2.0,262.5335379,40.63449889,-99999.0,'11111222,11111222,99999999' 
TABS,ioos:station:wmo:42050:1,2016-12-03T06:30:00Z,28.8425,-94.2433,2.0,263.8111405,42.11541879,-99999.0,'11111222,11111222,99999999' 
TABS,ioos:station:wmo:42050:1,2016-12-03T07:00:00Z,28.8425,-94.2433,2.0,274.6493978,41.08517251,-99999.0,'11111222,11111222,99999999' 
TABS,ioos:station:wmo:42050:1,2016-12-03T07:30:00Z,28.8425,-94.2433,2.0,268.5404772,42.41375249,-99999.0,'11111222,11111222,99999999' 
TABS,ioos:station:wmo:42050:1,2016-12-03T08:00:00Z,28.8425,-94.2433,2.0,271.3220026,45.09199485,-99999.0,'11111222,11111222,99999999' 
TABS,ioos:station:wmo:42050:1,2016-12-03T08:30:00Z,28.8425,-94.2433,2.0,270.3496951,41.010762,-99999.0,'11111222,11111222,99999999' 
TABS,ioos:station:wmo:42050:1,2016-12-03T09:00:00Z,28.8425,-94.2433,2.0,269.7174758,40.62049237,-99999.0,'11111222,11111222,99999999' 
TABS,ioos:station:wmo:42050:1,2016-12-03T09:30:00Z,28.8425,-94.2433,2.0,263.5144869,44.53496828,-99999.0,'11111222,11111222,99999999' 
TABS,ioos:station:wmo:42050:1,2016-12-03T10:00:00Z,28.8425,-94.2433,2.0,262.8412186,46.86529206,-99999.0,'11111222,11111222,99999999' 
TABS,ioos:station:wmo:42050:1,2016-12-03T10:30:00Z,28.8425,-94.2433,2.0,262.4699649,44.26165835,-99999.0,'11111222,11111222,99999999' 
TABS,ioos:station:wmo:42050:1,2016-12-03T11:00:00Z,28.8425,-94.2433,2.0,263.4946179,46.0766405,-99999.0,'11111222,11111222,99999999' 
TABS,ioos:station:wmo:42050:1,2016-12-03T11:30:00Z,28.8425,-94.2433,2.0,258.687154,44.60661498,-99999.0,'11111222,11111222,99999999' 
TABS,ioos:station:wmo:42050:1,2016-12-03T12:00:00Z,28.8425,-94.2433,2.0,258.2721534,45.21381426,-99999.0,'11111222,11111222,99999999' 
TABS,ioos:station:wmo:42050:1,2016-12-03T12:30:00Z,28.8425,-94.2433,2.0,257.5483818,47.26159752,-99999.0,'11111222,11111222,99999999' 
TABS,ioos:station:wmo:42050:1,2016-12-03T13:00:00Z,28.8425,-94.2433,2.0,255.8049449,46.48940632,-99999.0,'11111222,11111222,99999999' 
TABS,ioos:station:wmo:42050:1,2016-12-03T13:30:00Z,28.8425,-94.2433,2.0,258.8850559,46.58373643,-99999.0,'11111222,11111222,99999999' 
TABS,ioos:station:wmo:42050:1,2016-12-03T14:00:00Z,28.8425,-94.2433,2.0,257.6657266,43.6781158,-99999.0,'11111222,11111222,99999999' 
TABS,ioos:station:wmo:42050:1,2016-12-03T14:30:00Z,28.8425,-94.2433,2.0,255.0914314,47.65406698,-99999.0,'11111222,11111222,99999999' 
TABS,ioos:station:wmo:42050:1,2016-12-03T15:00:00Z,28.8425,-94.2433,2.0,259.8754014,42.83701437,-99999.0,'11111222,11111222,99999999' 
TABS,ioos:station:wmo:42050:1,2016-12-03T15:30:00Z,28.8425,-94.2433,2.0,259.6799098,41.42003018,-99999.0,'11111222,11111222,99999999' 
TABS,ioos:station:wmo:42050:1,2016-12-03T16:00:00Z,28.8425,-94.2433,2.0,267.5694272,43.15881486,-99999.0,'11111222,11111222,99999999' 
TABS,ioos:station:wmo:42050:1,2016-12-03T16:30:00Z,28.8425,-94.2433,2.0,268.8978755,46.80865305,-99999.0,'11111222,11111222,99999999' 
TABS,ioos:station:wmo:42050:1,2016-12-03T17:00:00Z,28.8425,-94.2433,2.0,260.7282848,44.87624093,-99999.0,'11111222,11111222,99999999' 
TABS,ioos:station:wmo:42050:1,2016-12-03T17:30:00Z,28.8425,-94.2433,2.0,261.0610537,43.70072082,-99999.0,'11111222,11111222,99999999' 
TABS,ioos:station:wmo:42050:1,2016-12-03T18:00:00Z,28.8425,-94.2433,2.0,269.475415,39.35164673,-99999.0,'11111222,11111222,99999999' 
TABS,ioos:station:wmo:42050:1,2016-12-03T18:30:00Z,28.8425,-94.2433,2.0,271.3379235,42.84167247,-99999.0,'11111222,11111222,99999999' 
TABS,ioos:station:wmo:42050:1,2016-12-03T19:00:00Z,28.8425,-94.2433,2.0,268.717055,40.21007336,-99999.0,'11111222,11111222,99999999' 
TABS,ioos:station:wmo:42050:1,2016-12-03T19:30:00Z,28.8425,-94.2433,2.0,272.6002641,38.35948383,-99999.0,'11111222,11111222,99999999' 
TABS,ioos:station:wmo:42050:1,2016-12-03T20:00:00Z,28.8425,-94.2433,2.0,271.3348535,36.06978237,-99999.0,'11111222,11111222,99999999' 
TABS,ioos:station:wmo:42050:1,2016-12-03T20:30:00Z,28.8425,-94.2433,2.0,273.7878037,32.85174729,-99999.0,'11111222,11111222,99999999' 
TABS,ioos:station:wmo:42050:1,2016-12-03T21:00:00Z,28.8425,-94.2433,2.0,277.6263099,33.90991153,-99999.0,'11111222,11111222,99999999' 
TABS,ioos:station:wmo:42050:1,2016-12-03T21:30:00Z,28.8425,-94.2433,2.0,276.0094128,30.37690735,-99999.0,'11111222,11111222,99999999' 
TABS,ioos:station:wmo:42050:1,2016-12-03T22:00:00Z,28.8425,-94.2433,2.0,278.2555202,31.75906957,-99999.0,'11111222,11111222,99999999' 
TABS,ioos:station:wmo:42050:1,2016-12-03T22:30:00Z,28.8425,-94.2433,2.0,278.3310854,27.46985257,-99999.0,'11111222,11111222,99999999' 
TABS,ioos:station:wmo:42050:1,2016-12-03T23:00:00Z,28.8425,-94.2433,2.0,271.2358225,28.75668444,-99999.0,'11111222,11111222,99999999' 
TABS,ioos:station:wmo:42050:1,2016-12-03T23:30:00Z,28.8425,-94.2433,2.0,271.6623482,25.17058799,-99999.0,'11111222,11111222,99999999' 
TABS,ioos:station:wmo:42050:1,2016-12-04T00:00:00Z,28.8425,-94.2433,2.0,279.2651336,19.06875193,-99999.0,'11111222,11111222,99999999' 
TABS,ioos:station:wmo:42050:1,2016-12-04T00:30:00Z,28.8425,-94.2433,2.0,260.5743841,17.76989026,-99999.0,'11111222,11111222,99999999' 
TABS,ioos:station:wmo:42050:1,2016-12-04T01:00:00Z,28.8425,-94.2433,2.0,253.5209281,21.39895558,-99999.0,'11111222,11111222,99999999' 
TABS,ioos:station:wmo:42050:1,2016-12-04T01:30:00Z,28.8425,-94.2433,2.0,225.5059655,19.20576997,-99999.0,'11111222,11111222,99999999' 
TABS,ioos:station:wmo:42050:1,2016-12-04T02:00:00Z,28.8425,-94.2433,2.0,213.2872394,24.8705971,-99999.0,'11111222,11111222,99999999' 
TABS,ioos:station:wmo:42050:1,2016-12-04T02:30:00Z,28.8425,-94.2433,2.0,215.2600044,34.8177383,-99999.0,'11111222,11111222,99999999' 
TABS,ioos:station:wmo:42050:1,2016-12-04T03:00:00Z,28.8425,-94.2433,2.0,228.5026815,31.36221453,-99999.0,'11111222,11111222,99999999' 
TABS,ioos:station:wmo:42050:1,2016-12-04T03:30:00Z,28.8425,-94.2433,2.0,232.6746639,32.98504055,-99999.0,'11111222,11111222,99999999' 
TABS,ioos:station:wmo:42050:1,2016-12-04T04:00:00Z,28.8425,-94.2433,2.0,231.1632807,36.48548753,-99999.0,'11111222,11111222,99999999' 
TABS,ioos:station:wmo:42050:1,2016-12-04T04:30:00Z,28.8425,-94.2433,2.0,230.7338345,41.04788423,-99999.0,'11111222,11111222,99999999' 
TABS,ioos:station:wmo:42050:1,2016-12-04T05:00:00Z,28.8425,-94.2433,2.0,244.532931,36.62905131,-99999.0,'11111222,11111222,99999999' 
TABS,ioos:station:wmo:42050:1,2016-12-04T05:30:00Z,28.8425,-94.2433,2.0,248.3161245,36.99801751,-99999.0,'11111222,11111222,99999999' 
TABS,ioos:station:wmo:42050:1,2016-12-04T06:00:00Z,28.8425,-94.2433,2.0,248.1417222,33.89684351,-99999.0,'11111222,11111222,99999999' 
TABS,ioos:station:wmo:42050:1,2016-12-04T06:30:00Z,28.8425,-94.2433,2.0,241.2032391,36.64115992,-99999.0,'11111222,11111222,99999999' 
TABS,ioos:station:wmo:42050:1,2016-12-04T07:00:00Z,28.8425,-94.2433,2.0,237.4259577,37.29680013,-99999.0,'11111222,11111222,99999999' 
TABS,ioos:station:wmo:42050:1,2016-12-04T07:30:00Z,28.8425,-94.2433,2.0,245.8551478,34.20210812,-99999.0,'11111222,11111222,99999999' 
TABS,ioos:station:wmo:42050:1,2016-12-04T08:00:00Z,28.8425,-94.2433,2.0,244.6153836,33.63760544,-99999.0,'11111222,11111222,99999999' 
TABS,ioos:station:wmo:42050:1,2016-12-04T08:30:00Z,28.8425,-94.2433,2.0,244.0178458,28.55606766,-99999.0,'11111222,11111222,99999999' 
TABS,ioos:station:wmo:42050:1,2016-12-04T09:00:00Z,28.8425,-94.2433,2.0,233.3987593,27.69030516,-99999.0,'11111222,11111222,99999999' 
TABS,ioos:station:wmo:42050:1,2016-12-04T09:30:00Z,28.8425,-94.2433,2.0,239.6407935,28.59040748,-99999.0,'11111222,11111222,99999999' 
TABS,ioos:station:wmo:42050:1,2016-12-04T10:00:00Z,28.8425,-94.2433,2.0,245.461908,30.84574039,-99999.0,'11111222,11111222,99999999' 
TABS,ioos:station:wmo:42050:1,2016-12-04T10:30:00Z,28.8425,-94.2433,2.0,248.0240516,34.81989374,-99999.0,'11111222,11111222,99999999' 
TABS,ioos:station:wmo:42050:1,2016-12-04T11:00:00Z,28.8425,-94.2433,2.0,251.7924612,27.04401228,-99999.0,'11111222,11111222,99999999' 
TABS,ioos:station:wmo:42050:1,2016-12-04T11:30:00Z,28.8425,-94.2433,2.0,255.8807974,31.97593001,-99999.0,'11111222,11111222,99999999' 
TABS,ioos:station:wmo:42050:1,2016-12-04T12:00:00Z,28.8425,-94.2433,2.0,264.400918,33.62038072,-99999.0,'11111222,11111222,99999999' 
TABS,ioos:station:wmo:42050:1,2016-12-04T12:30:00Z,28.8425,-94.2433,2.0,264.9426537,32.44629409,-99999.0,'11111222,11111222,99999999' 
TABS,ioos:station:wmo:42050:1,2016-12-04T13:00:00Z,28.8425,-94.2433,2.0,259.3552762,28.53093935,-99999.0,'11111222,11111222,99999999' 
TABS,ioos:station:wmo:42050:1,2016-12-04T13:30:00Z,28.8425,-94.2433,2.0,253.2941387,35.20586315,-99999.0,'11111222,11111222,99999999' 
TABS,ioos:station:wmo:42050:1,2016-12-04T14:00:00Z,28.8425,-94.2433,2.0,251.0316106,35.34946959,-99999.0,'11111222,11111222,99999999' 
TABS,ioos:station:wmo:42050:1,2016-12-04T14:30:00Z,28.8425,-94.2433,2.0,245.3653403,34.37893832,-99999.0,'11111222,11111222,99999999' 
TABS,ioos:station:wmo:42050:1,2016-12-04T15:00:00Z,28.8425,-94.2433,2.0,249.3027264,32.85003805,-99999.0,'11111222,11111222,99999999' 
TABS,ioos:station:wmo:42050:1,2016-12-04T15:30:00Z,28.8425,-94.2433,2.0,243.9472174,31.99046889,-99999.0,'11111222,11111222,99999999' 
TABS,ioos:station:wmo:42050:1,2016-12-04T16:00:00Z,28.8425,-94.2433,2.0,243.9216826,29.45902408,-99999.0,'11111222,11111222,99999999' 